TimePST,TemperatureF,Dew PointF,Humidity,Sea Level PressureIn,VisibilityMPH,Wind Direction,Wind SpeedMPH,Gust SpeedMPH,PrecipitationIn,Events,Conditions,WindDirDegrees,DateUTC
12:54 AM,44.1,39.0,82,30.24,10.0,ENE,5.8,-,N/A,,Clear,60,2013-02-26 08:54:00
1:54 AM,43.0,39.0,86,30.23,10.0,NE,3.5,-,N/A,,Clear,50,2013-02-26 09:54:00
2:54 AM,43.0,37.9,82,30.22,10.0,ENE,3.5,-,N/A,,Clear,60,2013-02-26 10:54:00
3:54 AM,39.9,36.0,86,30.22,10.0,East,4.6,-,N/A,,Clear,100,2013-02-26 11:54:00
4:54 AM,39.9,37.0,89,30.22,10.0,Calm,Calm,-,N/A,,Clear,0,2013-02-26 12:54:00
5:54 AM,39.0,35.1,86,30.23,10.0,Calm,Calm,-,N/A,,Clear,0,2013-02-26 13:54:00
6:54 AM,39.9,35.1,83,30.24,10.0,Calm,Calm,-,N/A,,Clear,0,2013-02-26 14:54:00
7:54 AM,44.1,39.0,82,30.24,10.0,Calm,Calm,-,N/A,,Clear,0,2013-02-26 15:54:00
8:54 AM,50.0,43.0,77,30.25,10.0,Calm,Calm,-,N/A,,Clear,0,2013-02-26 16:54:00
9:54 AM,52.0,43.0,71,30.25,10.0,West,5.8,-,N/A,,Clear,260,2013-02-26 17:54:00
10:54 AM,54.0,41.0,62,30.24,10.0,WSW,5.8,-,N/A,,Clear,250,2013-02-26 18:54:00
11:54 AM,57.0,36.0,45,30.23,10.0,WSW,8.1,-,N/A,,Clear,250,2013-02-26 19:54:00
12:54 PM,60.1,34.0,38,30.20,10.0,West,9.2,-,N/A,,Clear,260,2013-02-26 20:54:00
1:54 PM,62.1,33.1,34,30.19,10.0,West,8.1,-,N/A,,Clear,260,2013-02-26 21:54:00
2:54 PM,63.0,34.0,34,30.18,10.0,West,11.5,-,N/A,,Clear,270,2013-02-26 22:54:00
3:54 PM,60.1,41.0,49,30.18,10.0,West,11.5,-,N/A,,Clear,280,2013-02-26 23:54:00
4:54 PM,57.0,39.9,53,30.18,10.0,WNW,9.2,-,N/A,,Clear,290,2013-02-27 00:54:00
5:54 PM,55.0,39.0,55,30.19,10.0,West,6.9,-,N/A,,Clear,280,2013-02-27 01:54:00
6:54 PM,52.0,42.1,69,30.21,10.0,West,8.1,-,N/A,,Clear,280,2013-02-27 02:54:00
7:54 PM,51.1,44.1,77,30.21,9.0,Calm,Calm,-,N/A,,Clear,0,2013-02-27 03:54:00
8:54 PM,50.0,45.0,83,30.23,8.0,Calm,Calm,-,N/A,,Clear,0,2013-02-27 04:54:00
9:54 PM,48.9,42.1,77,30.24,10.0,Calm,Calm,-,N/A,,Clear,0,2013-02-27 05:54:00
10:54 PM,46.9,37.9,71,30.25,10.0,NE,3.5,-,N/A,,Clear,50,2013-02-27 06:54:00
11:54 PM,46.0,36.0,68,30.25,10.0,ENE,5.8,-,N/A,,Clear,60,2013-02-27 07:54:00